Weather History for Howell, MI

Change the Weather History Date:

Friday, September 23, 2011

  Actual Average Record
Temperature  
Mean Temperature 56 °F -  
Max Temperature 60 °F 69 °F 87 °F (2004)
Min Temperature 51 °F 48 °F 36 °F (2013)
Degree Days  
Heating Degree Days 10    
Growing Degree Days 6 (Base 50)    
Moisture  
Dew Point 52 °F    
Average Humidity 88    
Maximum Humidity 100    
Minimum Humidity 68    
Precipitation  
Precipitation 0.00 in - - ()
Sea Level Pressure  
Sea Level Pressure 30.06 in    
Wind  
Wind Speed 1 mph (North)    
Max Wind Speed 7 mph    
Max Gust Speed -    
Visibility 9 miles    
Events Rain    
Averages and records for this station are not official NWS values.
T = Trace of Precipitation, MM = Missing Value Source: NWS Daily Summary

Daily Weather History Graph

Daily Weather History Graph

Search for Another Location

Airport:

Trip Planner

Search our weather history database for the weather conditions in past years. The results will help you decide how hot, cold, wet, or windy it might be!

Date:

Astronomy

Sep. 23, 2011 Rise Set
Actual Time 7:24 AM EDT 7:31 PM EDT
Civil Twilight 6:55 AM EDT 8:00 PM EDT
Nautical Twilight 6:22 AM EDT 8:32 PM EDT
Astronomical Twilight 5:49 AM EDT 9:06 PM EDT
Moon 2:44 AM EDT (9/23) 5:06 PM EDT (9/23)
Length of Visible Light 13h 04m
Length of Day
12h 07m
Waning Crescent, 19% of the Moon is Illuminated
Sep 23
Waning Crescent
Sep 27
New
Oct 3
First Quarter
Oct 11
Full
Oct 19
Last Quarter

Hourly Weather History & Observations

Time (EDT) Temp. Dew Point Humidity Pressure Visibility Wind Dir Wind Speed Gust Speed Precip Events Conditions
12:14 AM 55.4 °F 51.8 °F 88% 30.12 in 10.0 mi Calm Calm - N/A   Overcast
12:35 AM 55.4 °F 51.8 °F 88% 30.13 in 10.0 mi WNW 4.6 mph - N/A   Overcast
12:54 AM 55.4 °F 51.8 °F 88% 30.13 in 10.0 mi Calm Calm - N/A   Light Drizzle
1:14 AM 55.4 °F 50.0 °F 82% 30.11 in 10.0 mi Calm Calm - N/A Rain Light Rain
1:35 AM 55.4 °F 51.8 °F 88% 30.11 in 10.0 mi Calm Calm - N/A   Overcast
1:54 AM 53.6 °F 51.8 °F 94% 30.11 in 10.0 mi Calm Calm - N/A Rain Light Rain
2:14 AM 53.6 °F 51.8 °F 94% 30.10 in 10.0 mi Calm Calm - N/A   Mostly Cloudy
2:34 AM 53.6 °F 51.8 °F 94% 30.10 in 10.0 mi Calm Calm - N/A   Overcast
2:54 AM 53.6 °F 51.8 °F 94% 30.10 in 10.0 mi Calm Calm - N/A   Overcast
3:14 AM 53.6 °F 51.8 °F 94% 30.09 in 10.0 mi Calm Calm - N/A   Overcast
3:34 AM 53.6 °F 51.8 °F 94% 30.08 in 10.0 mi Calm Calm - N/A   Light Drizzle
4:14 AM 53.6 °F 51.8 °F 94% 30.08 in 10.0 mi Calm Calm - N/A   Light Drizzle
4:34 AM 53.6 °F 51.8 °F 94% 30.08 in 10.0 mi Calm Calm - N/A   Overcast
4:54 AM 53.6 °F 51.8 °F 94% 30.08 in 7.0 mi Calm Calm - N/A   Overcast
5:15 AM 53.6 °F 51.8 °F 94% 30.08 in 7.0 mi Calm Calm - N/A   Overcast
5:34 AM 53.6 °F 51.8 °F 94% 30.07 in 10.0 mi Calm Calm - N/A   Overcast
5:54 AM 53.6 °F 51.8 °F 94% 30.07 in 10.0 mi Calm Calm - N/A   Overcast
6:34 AM 53.6 °F 51.8 °F 94% 30.07 in 7.0 mi East 3.5 mph - N/A   Overcast
6:54 AM 53.6 °F 51.8 °F 94% 30.07 in 7.0 mi NW 3.5 mph - N/A   Overcast
7:14 AM 53.6 °F 51.8 °F 94% 30.07 in 7.0 mi Calm Calm - N/A   Overcast
7:34 AM 53.6 °F 51.8 °F 94% 30.06 in 7.0 mi Calm Calm - N/A   Overcast
7:54 AM 53.6 °F 51.8 °F 94% 30.07 in 7.0 mi NW 3.5 mph - N/A   Overcast
8:14 AM 51.8 °F 51.8 °F 100% 30.06 in 7.0 mi NNE 3.5 mph - N/A   Overcast
8:34 AM 53.6 °F 51.8 °F 94% 30.06 in 7.0 mi NNW 4.6 mph - N/A   Overcast
8:54 AM 51.8 °F 51.8 °F 100% 30.05 in 5.0 mi NNE 3.5 mph - N/A   Overcast
9:14 AM 53.6 °F 51.8 °F 94% 30.06 in 5.0 mi NNE 3.5 mph - N/A   Overcast
9:34 AM 53.6 °F 51.8 °F 94% 30.06 in 5.0 mi NE 4.6 mph - N/A   Overcast
9:54 AM 53.6 °F 51.8 °F 94% 30.05 in 5.0 mi Calm Calm - N/A   Overcast
10:14 AM 53.6 °F 51.8 °F 94% 30.06 in 7.0 mi Calm Calm - N/A   Overcast
10:34 AM 53.6 °F 51.8 °F 94% 30.06 in 7.0 mi Calm Calm - N/A   Overcast
10:54 AM 55.4 °F 51.8 °F 88% 30.06 in 7.0 mi NNW 3.5 mph - N/A   Overcast
11:14 AM 55.4 °F 51.8 °F 88% 30.05 in 7.0 mi Calm Calm - N/A   Mostly Cloudy
11:35 AM 55.4 °F 51.8 °F 88% 30.05 in 7.0 mi Calm Calm - N/A   Overcast
11:54 AM 55.4 °F 51.8 °F 88% 30.05 in 10.0 mi Calm Calm - N/A   Overcast
12:14 PM 57.2 °F 51.8 °F 82% 30.04 in 10.0 mi NNW 4.6 mph - N/A   Overcast
12:34 PM 57.2 °F 51.8 °F 82% 30.03 in 10.0 mi North 3.5 mph - N/A   Overcast
12:54 PM 57.2 °F 51.8 °F 82% 30.03 in 10.0 mi NNW 4.6 mph - N/A   Overcast
1:14 PM 59.0 °F 51.8 °F 77% 30.02 in 10.0 mi North 5.8 mph - N/A   Overcast
1:34 PM 59.0 °F 51.8 °F 77% 30.02 in 10.0 mi Calm Calm - N/A   Overcast
1:54 PM 59.0 °F 51.8 °F 77% 30.01 in 10.0 mi NNW 4.6 mph - N/A   Overcast
2:14 PM 59.0 °F 51.8 °F 77% 30.01 in 10.0 mi North 4.6 mph - N/A   Overcast
2:34 PM 57.2 °F 51.8 °F 82% 30.00 in 10.0 mi North 3.5 mph - N/A   Overcast
3:14 PM 57.2 °F 51.8 °F 82% 30.00 in 7.0 mi North 3.5 mph - N/A   Overcast
3:34 PM 59.0 °F 53.6 °F 82% 30.00 in 10.0 mi NNE 3.5 mph - N/A   Overcast
3:54 PM 59.0 °F 53.6 °F 82% 30.00 in 10.0 mi North 3.5 mph - N/A   Overcast
4:15 PM 60.8 °F 51.8 °F 72% 29.99 in 10.0 mi North 6.9 mph - N/A   Mostly Cloudy
4:34 PM 60.8 °F 51.8 °F 72% 29.98 in 10.0 mi North 4.6 mph - N/A   Mostly Cloudy
4:54 PM 60.8 °F 50.0 °F 68% 29.98 in 10.0 mi NNW 5.8 mph - N/A   Overcast
5:15 PM 59.0 °F 51.8 °F 77% 29.98 in 10.0 mi North 3.5 mph - N/A   Mostly Cloudy
5:34 PM 59.0 °F 51.8 °F 77% 29.98 in 10.0 mi North 5.8 mph - N/A   Scattered Clouds
5:54 PM 59.0 °F 50.0 °F 72% 29.98 in 10.0 mi North 6.9 mph - N/A   Clear
6:14 PM 59.0 °F 50.0 °F 72% 29.98 in 10.0 mi NNW 3.5 mph - N/A   Clear
6:34 PM 57.2 °F 50.0 °F 77% 29.98 in 10.0 mi North 4.6 mph - N/A   Clear
6:54 PM 55.4 °F 50.0 °F 82% 29.99 in 10.0 mi Calm Calm - N/A   Clear
7:14 PM 55.4 °F 50.0 °F 82% 29.99 in 10.0 mi Calm Calm - N/A   Clear
7:34 PM 53.6 °F 50.0 °F 88% 29.99 in 10.0 mi Calm Calm - N/A   Clear
8:14 PM 51.8 °F 50.0 °F 94% 29.99 in 10.0 mi Calm Calm - N/A   Scattered Clouds
8:34 PM 51.8 °F 50.0 °F 94% 30.00 in 10.0 mi Calm Calm - N/A   Mostly Cloudy
8:55 PM 51.8 °F 50.0 °F 94% 30.00 in 10.0 mi Calm Calm - N/A   Mostly Cloudy
9:14 PM 50.0 °F 50.0 °F 100% 30.00 in 10.0 mi Calm Calm - N/A   Clear
9:34 PM 50.0 °F 46.4 °F 87% 30.01 in 10.0 mi West 4.6 mph - N/A   Clear
10:14 PM 50.0 °F 50.0 °F 100% 30.01 in 10.0 mi Calm Calm - N/A   Mostly Cloudy
10:34 PM 50.0 °F 46.4 °F 87% 30.01 in 7.0 mi Calm Calm - N/A   Mostly Cloudy
10:54 PM 48.2 °F 46.4 °F 93% 30.01 in 10.0 mi Calm Calm - N/A   Overcast
11:14 PM 50.0 °F 48.2 °F 94% 30.01 in 10.0 mi Calm Calm - N/A   Overcast
11:34 PM 50.0 °F 46.4 °F 87% 30.02 in 7.0 mi Calm Calm - N/A   Overcast